When you browse on this site, cookies collect data to enhance your experience and personalize the content and advertising you see.
Visit our Privacy Policy to learn more. By continuing to use the site, you agree to this use of cookies and data.
EN

Hourly Weather Stara Zagora

Today, 8 July, Wednesday

Time Temperature Precipitation Wind Pressure Humidity
00:00 +17°C° 0 mm 3 mps 739 mmHg 77%
01:00 +16°C° 0 mm 2 mps 740 mmHg 76%
02:00 +16°C° 0 mm 2 mps 740 mmHg 76%
03:00 +15°C° 0 mm 2 mps 740 mmHg 77%
04:00 +15°C° 0 mm 2 mps 741 mmHg 78%
05:00 +14°C° 0 mm 1 mps 741 mmHg 80%
06:00 +16°C° 0 mm 2 mps 741 mmHg 75%
07:00 +17°C° 0 mm 2 mps 742 mmHg 70%
08:00 +19°C° 0 mm 2 mps 742 mmHg 65%
09:00 +20°C° 0 mm 2 mps 743 mmHg 61%
10:00 +23°C° 0 mm 2 mps 743 mmHg 57%
11:00 +24°C° 0 mm 2 mps 743 mmHg 53%
12:00 +25°C° 0 mm 2 mps 743 mmHg 52%
13:00 +25°C° 0 mm 2 mps 743 mmHg 50%
14:00 +26°C° 0 mm 2 mps 743 mmHg 48%
15:00 +26°C° 0 mm 2 mps 743 mmHg 48%
16:00 +26°C° 0 mm 2 mps 742 mmHg 49%
17:00 +26°C° 0 mm 2 mps 742 mmHg 49%
18:00 +25°C° 0 mm 2 mps 742 mmHg 56%
19:00 +23°C° 0 mm 2 mps 743 mmHg 62%
20:00 +20°C° 0 mm 2 mps 743 mmHg 69%
21:00 +20°C° 0 mm 1 mps 743 mmHg 72%
22:00 +20°C° 0 mm 1 mps 743 mmHg 75%
23:00 +19°C° 0 mm 1 mps 743 mmHg 78%

Tomorrow, 9 July, Thursday

Time Temperature Precipitation Wind Pressure Humidity
00:00 +18°C° 0 mm 1 mps 744 mmHg 80%
01:00 +18°C° 0 mm 1 mps 744 mmHg 81%
02:00 +18°C° 0 mm 1 mps 744 mmHg 82%
03:00 +16°C° 0 mm 1 mps 744 mmHg 82%
04:00 +16°C° 0 mm 1 mps 744 mmHg 83%
05:00 +16°C° 0 mm 1 mps 744 mmHg 83%
06:00 +19°C° 0 mm 1 mps 744 mmHg 76%
07:00 +21°C° 0 mm 1 mps 744 mmHg 69%
08:00 +23°C° 0 mm 1 mps 744 mmHg 61%
09:00 +24°C° 0 mm 1 mps 744 mmHg 57%
10:00 +26°C° 0 mm 1 mps 744 mmHg 52%
11:00 +27°C° 0 mm 1 mps 745 mmHg 47%
12:00 +28°C° 0 mm 1 mps 744 mmHg 45%
13:00 +29°C° 0 mm 2 mps 744 mmHg 43%
14:00 +29°C° 0 mm 2 mps 743 mmHg 40%
15:00 +29°C° 0 mm 2 mps 743 mmHg 42%
16:00 +29°C° 0 mm 2 mps 743 mmHg 43%
17:00 +29°C° 0 mm 2 mps 743 mmHg 45%
18:00 +27°C° 0 mm 2 mps 743 mmHg 51%
19:00 +25°C° 0 mm 2 mps 743 mmHg 56%
20:00 +23°C° 0 mm 2 mps 743 mmHg 62%
21:00 +22°C° 0 mm 1 mps 743 mmHg 66%
22:00 +21°C° 0 mm 1 mps 744 mmHg 70%
23:00 +20°C° 0 mm 1 mps 744 mmHg 73%

Day after tomorrow, 10 July, Friday

Time Temperature Precipitation Wind Pressure Humidity
00:00 +20°C° 0 mm 1 mps 744 mmHg 75%
01:00 +19°C° 0 mm 1 mps 744 mmHg 76%
02:00 +19°C° 0 mm 1 mps 744 mmHg 77%
03:00 +19°C° 0 mm 1 mps 744 mmHg 77%
04:00 +19°C° 0 mm 1 mps 744 mmHg 76%
05:00 +19°C° 0 mm 1 mps 744 mmHg 76%
06:00 +21°C° 0 mm 1 mps 744 mmHg 70%
07:00 +23°C° 0 mm 1 mps 744 mmHg 64%
08:00 +25°C° 0 mm 1 mps 744 mmHg 58%
09:00 +26°C° 0 mm 1 mps 744 mmHg 54%
10:00 +27°C° 0 mm 2 mps 744 mmHg 51%
11:00 +29°C° 0 mm 3 mps 744 mmHg 47%
12:00 +29°C° 0 mm 3 mps 743 mmHg 46%
13:00 +30°C° 0 mm 3 mps 743 mmHg 45%
14:00 +30°C° 0 mm 3 mps 743 mmHg 45%
15:00 +30°C° 0 mm 3 mps 743 mmHg 47%
16:00 +29°C° 0 mm 4 mps 743 mmHg 48%
17:00 +29°C° 0 mm 4 mps 742 mmHg 50%
18:00 +27°C° 0 mm 3 mps 743 mmHg 56%
19:00 +25°C° 0 mm 3 mps 743 mmHg 61%
20:00 +23°C° 0 mm 2 mps 743 mmHg 67%
21:00 +21°C° 0 mm 2 mps 743 mmHg 71%
22:00 +21°C° 0 mm 1 mps 743 mmHg 75%
23:00 +20°C° 0 mm 1 mps 743 mmHg 79%

11 July, Saturday

Time Temperature Precipitation Wind Pressure Humidity
00:00 +20°C° 0 mm 1 mps 743 mmHg 81%
01:00 +20°C° 0 mm 1 mps 743 mmHg 83%
02:00 +19°C° 0 mm 1 mps 743 mmHg 85%
03:00 +19°C° 0 mm 1 mps 742 mmHg 86%
04:00 +19°C° 0 mm 1 mps 742 mmHg 87%
05:00 +19°C° 0 mm 1 mps 742 mmHg 88%
06:00 +21°C° 0 mm 1 mps 742 mmHg 82%
07:00 +22°C° 0 mm 1 mps 742 mmHg 76%
08:00 +24°C° 0 mm 1 mps 743 mmHg 69%
09:00 +25°C° 0 mm 1 mps 742 mmHg 65%
10:00 +26°C° 0 mm 2 mps 742 mmHg 61%
11:00 +27°C° 0 mm 2 mps 742 mmHg 56%
12:00 +28°C° 0 mm 2 mps 742 mmHg 55%
13:00 +29°C° 0 mm 2 mps 742 mmHg 54%
14:00 +29°C° 0 mm 2 mps 741 mmHg 52%
15:00 +29°C° 0 mm 2 mps 741 mmHg 53%
16:00 +29°C° 0 mm 2 mps 741 mmHg 53%
17:00 +29°C° 0 mm 3 mps 741 mmHg 54%
18:00 +28°C° 0 mm 2 mps 741 mmHg 60%
19:00 +26°C° 0 mm 2 mps 741 mmHg 66%
20:00 +24°C° 0 mm 2 mps 741 mmHg 73%
21:00 +23°C° 0 mm 2 mps 741 mmHg 77%
22:00 +22°C° 0 mm 1 mps 741 mmHg 82%
23:00 +21°C° 0 mm 1 mps 741 mmHg 87%

12 July, Sunday

Time Temperature Precipitation Wind Pressure Humidity
00:00 +21°C° 0 mm 1 mps 741 mmHg 88%
01:00 +21°C° 0 mm 1 mps 741 mmHg 90%
02:00 +20°C° 0 mm 1 mps 741 mmHg 91%
03:00 +20°C° 0 mm 1 mps 741 mmHg 91%
04:00 +20°C° 0 mm 1 mps 741 mmHg 91%
05:00 +20°C° 0 mm 1 mps 741 mmHg 91%
06:00 +22°C° 0 mm 1 mps 741 mmHg 84%
07:00 +24°C° 0 mm 1 mps 741 mmHg 76%
08:00 +25°C° 0 mm 2 mps 742 mmHg 69%
09:00 +27°C° 0 mm 2 mps 742 mmHg 64%
10:00 +28°C° 0 mm 3 mps 742 mmHg 58%
11:00 +29°C° 0 mm 4 mps 742 mmHg 53%
12:00 +30°C° 0 mm 4 mps 742 mmHg 51%
13:00 +30°C° 0 mm 4 mps 742 mmHg 49%
14:00 +31°C° 0 mm 3 mps 741 mmHg 48%
15:00 +30°C° 0 mm 4 mps 741 mmHg 50%
16:00 +30°C° 0 mm 4 mps 741 mmHg 52%
17:00 +30°C° 0 mm 4 mps 741 mmHg 54%
18:00 +28°C° 0 mm 4 mps 741 mmHg 60%
19:00 +26°C° 0 mm 3 mps 741 mmHg 65%
20:00 +25°C° 0 mm 3 mps 742 mmHg 70%
21:00 +24°C° 0 mm 3 mps 742 mmHg 69%
22:00 +22°C° 0 mm 3 mps 742 mmHg 69%
23:00 +21°C° 0 mm 3 mps 743 mmHg 68%

13 July, Monday

Time Temperature Precipitation Wind Pressure Humidity
00:00 +20°C° 0 mm 3 mps 743 mmHg 66%
01:00 +20°C° 0 mm 3 mps 743 mmHg 63%
02:00 +19°C° 0 mm 3 mps 743 mmHg 61%
03:00 +19°C° 0 mm 3 mps 743 mmHg 62%
04:00 +18°C° 0 mm 3 mps 743 mmHg 63%
05:00 +18°C° 0 mm 2 mps 743 mmHg 64%
06:00 +18°C° 0 mm 3 mps 743 mmHg 63%
07:00 +19°C° 0 mm 3 mps 744 mmHg 62%
08:00 +20°C° 0 mm 3 mps 744 mmHg 61%
09:00 +21°C° 0 mm 4 mps 744 mmHg 59%
10:00 +22°C° 0 mm 4 mps 744 mmHg 57%
11:00 +23°C° 0 mm 5 mps 744 mmHg 54%
12:00 +25°C° 0 mm 5 mps 744 mmHg 53%
13:00 +26°C° 0 mm 5 mps 744 mmHg 51%
14:00 +26°C° 0 mm 5 mps 744 mmHg 49%
15:00 +26°C° 0 mm 4 mps 744 mmHg 51%
16:00 +26°C° 0 mm 4 mps 743 mmHg 52%
17:00 +25°C° 0 mm 4 mps 743 mmHg 54%
18:00 +23°C° 0 mm 4 mps 743 mmHg 60%
19:00 +21°C° 0 mm 3 mps 743 mmHg 66%
20:00 +19°C° 0 mm 2 mps 743 mmHg 72%
21:00 +19°C° 0 mm 2 mps 744 mmHg 73%
22:00 +18°C° 0 mm 2 mps 744 mmHg 74%
23:00 +17°C° 0 mm 2 mps 744 mmHg 75%
Show more